Location: Home
(42.5358°N, 72.7383°W)
Time: 23:38:50
(UTC-05:00)

Vanguard 1 - Pass Details

Date: 05 December 2021
Orbit: 652 x 3830 km, 34.2° (Epoch: 21 January)

Event Time Altitude Azimuth Distance (km) Brightness Sun altitude
Rises 19:52:34 0° 184° (S) 6,181 14.2 -38.8°
Reaches altitude 10° 19:57:59 10° 169° (SSE) 5,684 13.8 -39.8°
Enters shadow 20:01:34 15° 157° (SSE) 5,515 13.6 -40.4°
Maximum altitude 20:09:55 21° 128° (SE) 5,616 - -41.9°
Drops below altitude 10° 20:24:05 10° 90° (E) 6,933 - -44.5°
Sets 20:31:42 0° 77° (ENE) 7,923 - -45.9°
